CAPE
1 0 1 1 1 1 0 0 0 0 0 0 0 0 0 0 0 0 0 0 0 0 0 0 0 0 0 0 0 0 0 0 0 0 0 0 0 0 0 0 0 0 266 374 237 37 50
2 1 0 1 1 1 0 0 0 0 0 0 0 0 0 0 0 0 0 0 0 0 0 0 0 0 0 0 0 0 0 0 0 0 0 0 0 0 0 0 0 295 260 168 50 75 50
1 0 1 1 1 1 0 0 0 0 0 0 0 0 0 0 0 0 0 0 0 0 0 0 0 0 0 0 0 0 0 0 0 0 0 0 0 0 0 23 437 262 76 92 10 0 3
1 1 1 1 1 1 0 0 0 0 0 0 0 0 0 0 0 0 0 0 0 0 0 0 0 0 0 0 0 0 0 0 0 0 0 0 0 0 0 129 170 183 72 15 49 17 2
1 1 1 1 1 1 0 0 0 0 0 0 0 0 0 0 0 0 0 0 0 0 0 0 0 0 0 0 0 0 0 0 0 0 0 0 0 0 0 13 0 0 0 51 29 5 2
1 1 1 0 1 1 0 0 0 0 0 0 0 0 0 0 0 0 0 0 0 0 0 0 0 0 0 0 0 0 0 0 0 0 0 0 0 0 0 0 0 0 0 16 39 0 0
2 1 1 1 2 1 1 0 0 0 0 0 0 0 0 0 0 0 0 0 0 0 0 0 0 0 0 0 0 0 0 0 0 0 0 0 0 0 0 0 0 0 0 22 1 0 0
1 2 1 2 2 1 1 1 0 0 0 0 0 0 0 0 0 0 0 0 0 0 0 0 0 0 0 0 0 0 0 0 0 0 0 0 0 0 0 0 0 74 61 52 34 10 10
1 1 0 0 0 1 1 0 1 0 0 0 0 0 0 0 0 0 0 0 0 0 0 0 0 0 0 0 0 0 0 0 0 0 0 0 0 0 0 0 2 39 76 1 15 63 38
1 1 0 0 0 0 1 1 0 0 0 0 0 0 0 0 0 0 0 0 0 0 0 0 0 0 0 0 0 0 0 0 0 0 0 0 0 0 0 0 0 17 96 126 54 47 37
1 1 1 0 0 0 0 1 0 0 0 0 0 0 0 0 0 0 0 0 0 0 0 0 0 0 0 0 0 0 0 0 0 0 0 0 0 0 0 0 0 2 226 175 37 15 16
1 1 1 1 1 0 0 0 1 0 0 0 0 0 0 0 0 0 0 0 0 0 0 0 0 0 0 0 0 0 0 0 0 0 0 0 0 0 0 0 0 343 160 117 69 8 1
1 1 1 0 1 1 0 0 0 0 0 0 0 0 0 0 0 0 0 0 0 0 0 0 0 0 0 0 0 0 0 0 0 0 0 0 0 239 355 255 383 227 128 22 12 6 2
1 1 0 0 1 0 0 1 0 0 0 0 0 0 0 0 0 0 0 0 0 0 0 0 0 0 0 0 0 0 0 0 0 0 0 1 0 374 594 280 233 236 91 5 0 2 21
1 1 1 1 1 1 0 0 0 0 0 0 0 0 0 0 0 0 0 0 0 0 0 0 0 0 0 0 3 0 0 0 1 0 0 1 9 229 641 536 466 401 178 14 40 41 26
1 1 1 1 0 1 0 0 0 0 0 0 0 0 0 0 0 0 0 0 0 0 0 0 0 0 0 0 6 30 27 3 0 0 0 0 10 17 259 407 272 181 146 70 47 31 17
1 0 1 1 1 2 1 0 0 0 0 0 0 0 0 0 0 0 0 0 0 0 0 0 0 0 0 3 4 13 43 22 0 0 0 0 3 2 1 42 133 1 19 1 25 42 51
1 1 1 1 1 1 1 1 1 0 0 0 0 0 0 0 0 0 0 0 0 0 0 0 0 0 0 0 0 1 9 22 0 0 0 0 0 1 9 0 0 0 0 0 0 0 1
1 1 1 1 1 1 1 0 0 0 0 0 0 0 0 0 0 0 0 0 0 0 0 0 0 0 0 0 0 0 11 0 0 0 0 0 0 0 10 0 0 0 0 0 0 0 0
1 1 1 1 2 1 1 0 0 0 0 0 0 0 0 0 0 0 0 0 0 0 0 0 0 0 0 0 0 2 0 0 0 0 0 0 0 0 0 0 0 3 0 0 0 0 0
1 1 1 1 1 1 1 1 0 0 0 0 0 0 0 0 0 0 0 0 0 0 0 0 0 0 0 0 0 0 0 0 0 0 0 0 0 0 0 4 21 29 2 0 0 0 10
1 0 0 1 1 1 1 1 0 0 0 0 0 0 0 0 0 0 0 0 0 0 0 0 0 0 0 0 0 0 0 0 0 0 0 0 0 0 0 4 10 3 14 31 19 126 152
0 1 1 1 1 2 1 1 1 0 0 0 0 0 0 0 0 0 0 0 0 0 0 0 0 0 0 0 0 0 0 0 0 0 0 0 0 0 0 0 0 0 5 35 68 89 126
0 1 1 1 1 1 1 1 1 1 0 0 0 0 0 0 0 0 4 0 0 0 0 0 0 0 0 0 0 0 0 0 0 0 0 0 0 0 0 0 0 0 2 127 91 119 136
0 0 0 1 0 3 2 0 2 1 2 1 0 0 0 0 0 4 13 0 0 0 0 0 0 0 0 0 0 0 0 0 0 0 0 0 0 0 0 0 0 9 0 0 24 22 71
0 0 0 0 0 2 5 3 1 1 3 0 0 0 0 0 0 2 7 7 0 0 0 0 0 0 0 0 0 0 0 0 0 0 0 0 0 0 0 0 0 0 0 0 0 0 71
0 0 0 0 0 0 7 9 4 2 2 4 0 0 0 0 0 0 0 0 4 0 0 0 0 0 0 0 0 0 0 0 0 0 0 0 0 0 0 0 2 0 0 0 0 0 7
0 0 0 0 0 0 4 10 4 3 2 4 0 0 0 0 0 0 0 0 0 0 0 0 0 0 0 0 0 0 0 0 0 0 9 0 0 0 0 0 0 4 0 4 0 56 85
0 0 0 0 0 1 1 6 3 2 1 6 0 0 0 0 0 0 0 0 0 0 0 0 0 0 1 0 0 0 0 0 0 0 13 3 3 0 0 0 0 16 0 26 41 148 214
CIN
0 0 -2 -1 0 0 0 0 0 0 0 0 0 0 0 0 0 0 0 0 0 0 0 0 0 0 0 0 0 0 0 0 0 0 0 0 0 0 0 0 0 0 -14 -34 -65 -87 -46
-1 -2 -2 -2 0 0 0 0 0 0 0 0 0 0 0 0 0 0 0 0 0 0 0 0 0 0 0 0 0 0 0 0 0 0 0 0 0 0 0 0 0 -36 -20 -59 -94 -76 -68
-1 -2 0 0 0 0 0 0 0 0 0 0 0 0 0 0 0 0 0 0 0 0 0 0 0 0 0 0 0 0 0 0 0 0 0 0 0 0 0 -27 -39 -39 -29 -38 -54 0 -45
0 0 0 0 0 0 0 0 0 0 0 0 0 0 0 0 0 0 0 0 0 0 0 0 0 0 0 0 0 0 0 0 0 0 0 0 0 0 0 -110 -28 -26 -17 -8 -19 -23 -12
0 0 0 0 0 0 0 0 0 0 0 0 0 0 0 0 0 0 0 0 0 0 0 0 0 0 0 0 0 0 0 0 0 0 0 0 0 0 0 -50 0 0 0 -11 -16 -20 -26
0 0 0 0 0 0 0 0 0 0 0 0 0 0 0 0 0 0 0 0 0 0 0 0 0 0 0 0 0 0 0 0 0 0 0 0 0 0 0 0 0 0 0 -75 -6 -2 0
0 0 0 0 0 0 0 0 0 0 0 0 0 0 0 0 0 0 0 0 0 0 0 0 0 0 0 0 0 0 0 0 0 0 0 0 0 0 0 0 0 0 0 -51 -24 0 0
0 0 0 0 0 0 0 0 0 0 0 0 0 0 0 0 0 0 0 0 0 0 0 0 0 0 0 0 0 0 0 0 0 0 0 0 0 0 0 0 0 -28 -37 -43 -18 -34 -33
0 0 0 0 0 0 0 0 0 0 0 0 0 0 0 0 0 0 0 0 0 0 0 0 0 0 0 0 0 0 0 0 0 0 0 0 0 0 0 0 -67 -50 -21 -20 -21 -4 -2
0 0 0 0 0 0 0 0 0 0 0 0 0 0 0 0 0 0 0 0 0 0 0 0 0 0 0 0 0 0 0 0 0 0 0 0 0 0 0 0 0 -30 -33 -58 -17 -38 -2
0 0 0 0 0 0 0 0 0 0 0 0 0 0 0 0 0 0 0 0 0 0 0 0 0 0 0 0 0 0 0 0 0 0 0 0 0 0 0 0 0 -3 -46 -40 -34 -57 -9
0 0 0 0 0 0 0 0 0 0 0 0 0 0 0 0 0 0 0 0 0 0 0 0 0 0 0 0 0 0 0 0 0 0 0 0 0 0 0 0 0 -118 -62 -74 -85 -41 -10
0 0 0 0 0 0 0 0 0 0 0 0 0 0 0 0 0 0 0 0 0 0 0 0 0 0 0 0 0 0 0 0 0 0 0 0 0 -95 -111 -124 -121 -76 -58 -30 -16 -16 -16
0 0 0 0 0 0 0 0 0 0 0 0 0 0 0 0 0 0 0 0 0 0 0 0 0 0 0 0 0 0 0 0 0 0 0 -53 0 -53 -82 -84 -78 -69 -74 -18 0 -10 -14
0 0 0 0 0 0 0 0 0 0 0 0 0 0 0 0 0 0 0 0 0 0 0 0 0 0 0 0 -9 0 0 0 -40 0 0 -10 -36 -61 -68 -103 -79 -77 -69 -57 -42 -103 -37
-1 0 0 0 -1 0 0 0 0 0 0 0 0 0 0 0 0 0 0 0 0 0 0 0 0 0 0 0 -14 -28 -40 -56 0 0 0 0 -29 -25 -25 -61 -75 -45 -94 -36 -57 -24 -25
0 0 0 0 0 0 0 0 0 0 0 0 0 0 0 0 0 0 0 0 0 0 0 0 0 0 0 -44 -54 -36 -24 -48 0 0 0 0 -55 -6 -3 -16 -25 -3 -29 -8 -68 -51 -10
-1 0 0 0 0 0 0 0 0 0 0 0 0 0 0 0 0 0 0 0 0 0 0 0 0 0 0 0 -2 -57 -37 -65 0 0 0 0 -6 -8 -53 0 0 0 0 0 0 0 -2
0 0 0 0 0 0 0 0 0 0 0 0 0 0 0 0 0 0 0 0 0 0 0 0 0 0 0 -10 0 -8 -75 0 0 0 0 0 0 0 -41 0 0 0 0 0 0 0 0
0 0 0 0 -1 0 0 0 0 0 0 0 0 0 0 0 0 0 0 0 0 0 0 0 0 0 0 0 0 -45 0 0 0 0 0 0 0 0 0 0 0 -101 0 0 0 0 0
0 0 0 0 0 0 -1 0 0 0 0 0 0 0 0 0 0 0 0 0 0 0 0 0 0 0 0 0 0 0 0 0 0 0 0 0 0 0 0 -117 -120 -121 -89 0 0 0 -71
0 0 0 0 0 0 0 -2 0 0 0 0 0 0 0 0 0 0 0 0 0 0 0 0 0 0 0 0 0 0 0 0 0 0 0 0 0 0 -8 -132 -105 -120 -165 -163 -177 -124 -111
0 0 0 0 0 0 0 -2 -2 -1 0 0 0 0 0 0 0 0 0 0 0 0 0 0 0 0 0 0 0 0 0 0 0 0 0 0 0 0 0 0 0 0 -173 -166 -153 -154 -142
0 0 0 0 0 0 -1 -2 -4 -2 -1 0 0 0 0 0 0 0 -50 0 0 0 0 0 0 0 0 0 0 0 0 0 0 0 0 0 0 0 0 0 0 0 -125 -146 -131 -135 -150
0 0 0 0 0 -3 -2 -3 -4 -3 -3 0 0 0 0 0 0 -41 -84 0 0 0 0 0 0 0 0 0 0 0 0 0 0 0 0 0 0 0 0 0 0 -93 0 -36 -145 -138 -152
0 0 0 0 0 -8 -5 -4 -4 -5 -6 -1 0 0 0 0 0 -74 -86 -82 0 0 0 0 0 0 0 0 0 0 0 0 0 0 0 0 0 0 0 0 0 -11 0 0 0 0 -162
0 0 0 0 0 0 -9 -6 -4 -5 -5 0 0 0 0 0 0 0 0 0 -109 0 0 0 0 0 0 0 0 0 0 0 0 0 0 0 0 0 0 0 -34 -22 0 0 0 0 -186
0 0 0 0 0 0 -15 -6 -2 -4 -5 0 0 0 0 0 0 0 0 0 0 0 0 0 0 0 0 0 0 0 0 0 0 0 -52 0 0 0 0 0 0 -132 0 -64 0 -137 -99
0 0 0 0 0 -3 -11 -8 -5 -3 -5 0 0 0 0 0 0 0 0 0 0 0 0 0 0 -55 -10 -11 0 0 0 0 -4 0 -178 -86 -53 0 0 0 0 -174 -11 -149 -142 -47 -36
Wind_Speed
26 25 25 26 26 26 26 26 25 26 26 27 27 27 27 27 27 27 27 27 27 25 23 23 22 22 17 14 10 16 15 2 2 7 8 6 6 8 8 13 10 8 13 16 14 9 2
25 25 25 26 27 27 27 26 26 26 26 27 27 27 28 28 27 27 26 27 27 25 23 22 21 20 16 13 14 12 9 4 5 7 10 9 8 11 13 18 11 11 11 13 15 10 8
24 24 26 27 27 27 26 24 25 27 28 28 28 28 28 28 27 21 27 26 26 22 21 20 19 19 15 12 12 10 8 10 12 11 11 14 11 12 16 14 11 6 10 13 16 16 15
23 25 26 27 27 26 23 23 25 27 29 29 28 28 28 26 3 25 27 26 23 20 19 18 18 18 16 13 17 16 11 16 13 15 15 12 15 15 14 12 11 14 14 17 17 18 14
23 24 23 23 22 22 22 25 28 30 28 25 22 23 26 27 28 29 29 29 19 17 17 17 18 19 18 19 15 11 9 12 10 11 13 15 13 14 15 11 13 16 17 16 17 15 15
22 21 20 22 25 26 28 31 29 28 26 25 25 26 28 29 29 28 29 25 19 18 18 16 16 19 19 21 15 14 6 6 10 10 13 15 15 13 15 14 18 16 16 17 16 16 16
22 22 24 27 29 31 32 32 30 27 26 27 27 29 30 28 28 26 26 20 23 19 20 17 18 16 17 18 15 12 6 5 12 11 13 17 19 20 21 17 16 14 14 13 16 17 15
26 26 28 30 31 32 33 32 31 27 25 23 25 31 30 28 26 23 19 22 20 21 20 17 13 14 12 15 17 12 6 8 9 12 14 19 25 23 22 21 18 15 12 15 17 16 17
28 30 32 33 33 34 34 34 31 27 23 17 19 31 29 26 24 17 18 19 18 22 20 19 18 18 17 16 16 12 8 10 12 11 15 19 20 20 22 23 19 17 18 16 19 18 21
30 31 32 33 34 35 35 35 33 31 27 18 15 27 28 25 15 16 17 18 17 16 20 22 21 19 18 16 18 9 9 11 11 11 16 19 23 23 25 30 21 25 23 17 9 15 24
33 33 34 34 35 35 35 36 36 35 34 5 6 15 26 17 14 15 17 7 18 17 21 18 20 18 18 19 19 13 9 13 13 12 13 17 18 19 26 28 21 22 15 18 16 15 18
34 34 35 35 35 36 36 36 36 34 30 24 21 2 18 15 13 13 9 5 18 19 22 17 17 18 17 17 17 11 9 15 16 21 20 26 23 21 22 20 16 9 13 11 14 16 22
35 35 35 35 36 36 37 37 35 33 28 27 22 3 14 14 15 15 11 19 20 22 17 17 15 18 17 15 17 14 7 16 14 15 15 17 17 14 8 8 11 17 18 19 20 20 21
36 35 35 36 36 37 37 37 35 33 29 27 22 14 12 12 13 17 20 18 21 18 21 18 17 17 20 19 16 13 10 15 18 20 18 16 17 13 12 12 13 17 22 20 21 21 19
36 35 35 36 36 36 37 37 36 33 29 26 12 15 13 13 13 15 19 20 17 16 17 19 18 18 19 17 16 14 8 14 15 17 18 15 16 20 16 13 6 21 25 20 16 17 21
35 35 35 36 36 36 37 37 36 34 30 25 17 15 13 13 15 16 17 18 16 15 17 18 18 18 16 18 16 15 10 13 13 13 15 16 17 14 17 16 20 17 15 21 20 22 24
34 35 35 35 36 36 36 36 36 34 32 24 15 14 13 13 13 15 15 15 14 14 16 17 19 17 16 16 15 13 12 14 14 15 13 15 16 17 14 18 19 17 22 20 17 18 19
34 35 34 35 35 36 36 36 35 34 32 21 15 12 15 14 12 13 13 14 15 16 15 16 17 17 16 14 15 13 15 17 18 17 16 16 15 17 12 14 6 10 17 23 25 24 20
35 34 34 34 34 35 35 35 34 32 29 19 15 10 10 9 11 11 11 4 10 9 14 17 15 16 16 14 11 15 14 17 16 16 17 17 16 19 14 13 13 13 18 17 17 19 24
34 34 33 34 33 34 34 34 33 31 29 17 13 10 9 9 10 12 20 12 11 11 14 17 17 13 15 17 14 13 15 18 17 15 15 14 13 12 16 17 16 14 16 16 18 24 25
34 33 33 32 32 33 33 33 32 30 29 15 11 10 10 9 11 20 18 10 9 9 12 14 18 16 13 14 14 14 16 18 17 17 16 13 12 10 9 10 10 12 15 15 16 18 24
32 33 32 32 32 32 33 32 31 29 27 14 11 11 12 9 11 17 16 17 5 8 9 12 12 14 14 14 14 15 17 17 16 18 16 16 12 9 12 12 11 15 17 17 17 18 19
32 32 32 32 31 32 32 31 29 28 24 15 13 14 12 9 9 12 16 12 5 7 13 10 9 13 14 13 12 16 14 15 16 15 16 15 14 15 16 19 22 23 21 18 16 18 19
31 31 31 31 31 31 31 30 27 25 22 17 15 14 12 10 8 10 16 16 4 7 9 10 12 16 14 15 14 14 14 15 15 16 15 13 14 15 19 21 29 20 18 17 16 17 16
29 29 29 30 30 31 31 30 28 25 22 19 17 15 12 13 9 10 14 14 11 12 11 11 12 15 14 16 15 13 14 14 17 17 18 16 13 16 17 18 20 22 23 22 23 24 20
27 27 28 29 31 31 31 29 27 25 23 22 20 15 15 13 10 12 11 13 9 7 13 12 13 14 17 14 12 14 14 14 17 17 16 16 15 14 15 19 22 19 17 19 20 30 21
27 28 29 30 30 30 31 29 28 25 23 21 21 16 16 16 15 13 11 14 13 12 11 10 11 15 16 13 13 14 14 14 15 15 15 16 17 15 16 18 19 17 16 16 22 24 21
28 29 29 30 30 31 31 29 27 24 22 20 23 18 16 20 24 19 18 14 16 12 8 10 10 15 14 15 14 14 13 12 13 13 14 14 14 15 15 18 21 13 15 18 18 18 19
28 30 29 31 31 31 31 28 26 22 20 18 20 17 15 19 20 21 27 31 26 18 12 10 10 11 12 13 13 13 12 11 13 14 13 13 12 14 14 15 14 13 14 12 12 14 17
Wind_Direction
356 352 349 352 347 347 347 344 338 336 338 342 343 343 345 348 351 353 351 347 345 354 356 349 340 325 335 343 345 307 306 358 241 264 271 270 280 295 316 306 326 321 310 322 338 108 19
351 348 345 346 349 348 348 339 336 331 335 340 341 341 342 346 352 356 358 352 349 353 355 353 345 335 353 341 317 323 353 7 279 262 262 261 277 290 302 298 311 322 320 323 321 329 288
345 343 344 348 347 347 340 325 329 333 341 348 344 344 347 347 359 22 354 357 353 2 7 6 1 357 357 0 342 331 331 308 280 263 263 255 267 293 293 305 312 343 323 320 312 299 284
341 343 342 344 343 342 324 322 325 335 352 354 349 348 355 6 241 322 349 355 1 9 13 15 13 9 2 1 322 309 307 296 285 264 260 265 259 280 294 290 305 298 300 285 296 288 292
338 337 334 332 329 325 323 329 337 2 15 23 27 21 9 359 316 323 329 339 15 25 25 26 17 2 357 340 358 336 306 301 292 266 262 262 258 272 279 284 295 294 280 283 286 302 289
333 329 326 327 333 335 338 354 18 19 25 23 20 14 0 319 325 329 323 1 23 31 28 31 21 1 0 347 11 358 326 300 293 263 259 252 256 265 267 270 276 284 282 280 283 282 283
328 326 329 335 341 350 357 5 11 19 20 15 11 2 341 317 329 342 355 22 14 21 19 27 12 7 2 4 9 7 347 313 282 275 250 252 251 248 250 263 275 288 294 283 270 283 304
331 332 337 341 345 346 358 8 11 18 22 24 18 352 323 315 339 352 28 21 28 25 21 27 40 29 26 10 355 2 344 304 286 264 263 258 250 249 251 255 268 276 282 283 282 285 281
335 337 344 347 349 357 1 2 11 18 24 30 26 352 314 308 322 31 29 32 46 22 31 37 44 36 37 40 20 3 326 294 282 263 266 258 258 256 252 249 256 263 263 274 283 281 277
336 338 342 343 345 354 356 359 3 6 13 27 28 2 315 304 31 29 31 39 345 69 40 47 43 48 57 44 12 29 315 288 282 267 265 264 258 255 250 243 245 254 260 265 318 287 262
341 343 343 341 346 353 354 345 346 343 336 1 293 7 338 20 37 36 33 91 44 49 21 50 47 64 62 45 17 354 285 267 268 274 277 260 260 258 250 243 246 257 267 257 288 298 284
343 345 346 345 344 346 347 343 336 327 313 296 290 242 19 45 59 71 104 65 44 41 28 49 47 45 54 60 57 3 311 264 271 263 263 254 258 262 254 259 250 254 254 271 288 292 275
343 345 347 346 346 343 341 338 325 318 305 300 290 185 62 67 53 58 52 33 39 31 45 49 53 48 60 66 43 80 358 255 275 276 260 261 262 270 267 242 242 242 238 259 270 269 270
343 346 347 348 345 339 337 335 324 317 307 301 289 43 82 91 62 13 17 38 24 54 49 43 42 47 51 65 58 66 331 269 261 257 257 257 253 252 253 246 239 232 249 257 258 258 271
343 345 347 344 340 337 335 334 324 318 308 301 297 49 68 73 91 69 30 29 42 64 51 43 41 35 39 52 47 31 350 306 276 262 250 257 257 249 246 251 246 247 246 256 275 284 266
343 343 341 340 337 336 335 334 327 320 311 301 31 46 71 70 75 36 29 39 60 54 37 32 37 33 46 40 46 44 1 289 288 305 266 264 261 268 255 259 259 262 257 253 265 263 258
342 340 336 337 333 331 332 333 330 324 315 330 36 38 62 79 49 28 34 57 59 47 41 33 26 34 27 48 26 19 349 289 306 297 298 273 269 269 271 261 254 266 255 265 266 271 269
339 336 334 335 333 335 334 331 332 331 325 351 13 27 49 80 34 27 40 50 33 33 22 12 25 38 29 60 59 7 327 286 289 297 289 293 276 267 271 276 297 290 280 260 255 258 263
334 333 333 333 336 334 334 333 330 333 344 351 353 35 79 52 16 29 31 57 22 47 23 4 2 15 25 27 29 332 332 317 318 300 288 292 290 258 264 273 295 295 289 279 270 271 260
330 329 331 329 332 332 333 331 328 326 331 354 351 10 22 24 5 358 343 222 33 44 20 13 360 10 11 343 350 358 331 305 308 302 306 304 306 280 262 264 279 286 298 297 280 265 265
325 330 327 329 332 330 327 327 326 323 320 351 350 359 15 14 349 326 344 31 59 35 9 5 1 358 6 350 339 337 321 299 302 305 309 319 304 300 287 306 309 298 296 306 297 289 273
326 325 327 327 326 327 322 322 323 323 319 343 332 333 341 359 360 340 355 351 52 20 20 9 24 17 10 359 345 326 319 323 324 297 312 310 307 304 289 293 300 293 301 301 300 304 299
324 326 327 326 326 324 321 321 324 320 323 331 328 316 321 336 346 354 352 350 39 26 353 8 35 355 345 352 4 346 350 340 332 325 319 311 301 293 281 283 278 278 288 301 305 305 298
321 325 326 328 327 326 323 317 321 319 323 321 320 317 310 304 326 345 348 344 41 9 7 8 355 338 336 327 340 352 344 334 325 326 328 324 318 303 289 287 268 284 293 301 303 304 309
325 328 330 328 327 323 320 316 312 313 313 312 309 310 309 295 303 326 344 347 332 339 356 5 1 349 346 325 324 326 320 325 323 321 316 320 329 308 296 295 292 283 282 285 285 286 297
328 330 330 329 325 321 317 316 313 309 306 302 298 296 298 300 279 308 333 344 338 343 334 347 342 353 341 328 321 310 317 321 323 325 335 326 325 314 306 292 286 296 300 295 292 278 291
324 323 329 329 327 324 319 315 309 307 305 302 293 291 291 290 290 295 308 323 326 315 324 335 340 339 336 332 322 317 319 328 329 336 335 330 321 309 300 297 300 304 309 313 286 286 290
318 321 327 328 325 323 319 316 311 310 307 305 287 288 283 285 279 285 290 316 315 311 320 325 336 328 332 324 321 328 326 331 333 338 337 333 327 313 308 299 293 317 315 299 307 311 302
317 319 325 323 320 319 318 316 311 312 308 306 289 294 290 282 285 286 278 258 265 193 312 328 339 336 337 331 333 335 342 337 332 328 336 329 333 325 323 316 331 331 321 340 337 338 319